EW6103 Weather Reports


time (UTC)temp
F
wind
direction
speed
knots
gust
knots
rain 1hr
in
rain 24hr
in
rain mn
in
humidity
%
barometer
mb
20260505091006 71 135 2.6 5.2 0.00 0.00 0.00 39 1006.3
20260505084009 70 135 2.6 5.2 0.00 0.00 0.00 41 1006.6
20260505083010 71 90 2.6 5.2 0.00 0.00 0.00 42 1006.7
20260505082009 70 90 1.7 5.2 0.00 0.00 0.00 43 1006.7
20260505081009 69 180 2.6 6.1 0.00 0.00 0.00 42 1007.0
20260505080015 69 135 3.5 7.0 0.00 0.00 0.00 44 1007.0
20260505075008 69 135 3.5 7.0 0.00 0.00 0.00 43 1007.1
20260505074007 68 90 3.5 5.2 0.00 0.00 0.00 44 1007.3
20260505073009 67 135 2.6 5.2 0.00 0.00 0.00 44 1007.5
20260505072009 67 90 3.5 6.1 0.00 0.00 0.00 44 1007.4
20260505071010 66 180 3.5 6.1 0.00 0.00 0.00 44 1007.6
20260505065008 64 180 3.5 7.8 0.00 0.00 0.00 45 1007.6
20260505063010 64 135 2.6 6.1 0.00 0.00 0.00 45 1007.6
20260505061009 62 90 2.6 5.2 0.00 0.00 0.00 49 1007.5
20260505060013 62 135 3.5 7.0 0.00 0.00 0.00 49 1007.4
20260505055008 62 135 3.5 6.1 0.00 0.00 0.00 48 1007.2
20260505053009 61 135 2.6 4.3 0.00 0.00 0.00 51 1007.5
20260505051008 59 90 3.5 6.1 0.00 0.00 0.00 50 1007.4
20260505040012 54 45 0.0 0.9 0.00 0.00 0.00 70 1008.5
20260505035008 54 45 0.0 0.9 0.00 0.00 0.00 70 1008.5
20260505034008 53 0 0.0 1.7 0.00 0.00 0.00 71 1008.6
20260505033009 54 0 0.0 0.9 0.00 0.00 0.00 69 1008.4
20260505032009 54 90 0.9 1.7 0.00 0.00 0.00 70 1008.5
20260505031009 54 90 0.9 1.7 0.00 0.00 0.00 73 1008.8
20260505030017 54 0 0.9 1.7 0.00 0.00 0.00 71 1008.8
20260505025007 55 45 0.9 2.6 0.00 0.00 0.00 69 1008.9
20260505024007 54 0 0.9 2.6 0.00 0.00 0.00 72 1009.1
20260505023010 53 45 0.9 2.6 0.00 0.00 0.00 75 1009.2
20260505022007 53 0 0.0 0.9 0.00 0.00 0.00 74 1009.2
20260505021009 53 45 0.0 1.7 0.00 0.00 0.00 72 1009.4
20260505015008 52 45 0.9 3.5 0.00 0.00 0.00 75 1009.8
20260505012009 53 180 0.0 0.9 0.00 0.00 0.00 75 1010.0
20260505011008 53 0 0.9 3.5 0.00 0.00 0.00 73 1010.0
20260505002008 58 45 0.0 0.9 0.00 0.00 0.00 64 1010.1
20260505000011 59 45 0.9 1.7 0.00 0.00 0.00 62 1010.0
20260504235007 60 45 0.9 2.6 0.00 0.00 0.00 62 1010.1
20260504234009 59 90 0.9 2.6 0.00 0.00 0.00 65 1010.0
20260504233009 59 135 1.7 3.5 0.00 0.00 0.00 65 1009.9
20260504232008 58 45 1.7 2.6 0.00 0.00 0.00 67 1009.9
20260504231005 57 90 0.9 2.6 0.00 0.00 0.00 69 1010.2
20260504230015 57 90 0.9 1.7 0.00 0.00 0.00 69 1010.3
20260504225007 56 45 0.9 2.6 0.00 0.00 0.00 71 1010.4
20260504224008 55 45 0.9 1.7 0.00 0.00 0.00 72 1010.5
20260504223010 55 45 0.0 0.9 0.00 0.00 0.00 76 1010.7
20260504222008 55 45 0.9 1.7 0.00 0.00 0.00 77 1010.8
20260504221006 55 45 0.0 0.9 0.00 0.00 0.00 77 1010.7
20260504220011 55 45 0.9 1.7 0.00 0.00 0.00 76 1010.7
20260504215006 56 0 1.7 2.6 0.00 0.00 0.00 73 1010.8
20260504214009 57 0 0.9 2.6 0.00 0.00 0.00 71 1010.7
20260504213009 56 90 0.0 1.7 0.00 0.00 0.00 75 1010.8
20260504212009 57 90 0.0 0.9 0.00 0.00 0.00 75 1010.9
20260504210012 58 180 0.0 0.9 0.00 0.00 0.00 73 1010.9
20260504205009 58 45 0.9 2.6 0.00 0.00 0.00 72 1010.8
20260504204008 59 0 0.9 3.5 0.00 0.00 0.00 71 1010.8
20260504202008 59 0 0.0 1.7 0.00 0.00 0.00 70 1010.7
20260504201007 59 135 0.9 3.5 0.00 0.00 0.00 70 1010.8
20260504200013 59 90 0.0 0.9 0.00 0.00 0.00 73 1010.7
20260504195009 60 0 0.0 0.9 0.00 0.00 0.00 72 1010.6
20260504194009 60 0 0.0 1.7 0.00 0.00 0.00 69 1010.5
20260504193010 60 0 0.0 0.9 0.00 0.00 0.00 71 1010.8
20260504192009 61 90 0.0 0.9 0.00 0.00 0.00 70 1010.7
20260504191007 62 45 0.0 0.9 0.00 0.00 0.00 70 1010.6
20260504190013 62 0 0.0 0.9 0.00 0.00 0.00 69 1010.4
20260504185009 63 0 0.0 0.9 0.00 0.00 0.00 68 1010.3
20260504184009 63 0 0.0 1.7 0.00 0.00 0.00 66 1010.2
20260504183010 63 0 0.0 1.7 0.00 0.00 0.00 66 1010.3
20260504182009 64 90 0.0 0.9 0.00 0.00 0.00 64 1010.3
20260504181006 65 0 0.9 1.7 0.00 0.00 0.00 63 1010.1
20260504180012 65 270 0.0 1.7 0.00 0.00 0.00 63 1010.1
20260504175008 67 0 0.0 0.9 0.00 0.00 0.00 62 1009.9
20260504174008 68 0 0.9 1.7 0.00 0.00 0.00 59 1009.8
20260504173010 69 0 0.0 1.7 0.00 0.00 0.00 60 1009.8
20260504171009 71 0 0.9 1.7 0.00 0.00 0.00 58 1009.8
20260504151008 76 270 0.0 2.6 0.00 0.00 0.00 39 1009.9
20260504141006 78 270 0.9 1.7 0.00 0.00 0.00 40 1010.2